Find Starlink 32022

NORAD ID: 60149 Int'l Des: 2024-120 Owner: SPXS Country: US Constellation: starlink operational
LEOCIRCULAR

当前视图

正在加载3D地球...

About Starlink 32022

Starlink 32022 (NORAD 60149) is a starlink constellation satellite (v2 mini) launched Jun 27, 2024 by SPXS of US. It operates in LEO, CIRCULAR orbit with a mass of 730.00 kg.

关于 Starlink 32022

正在加载描述...

即将过境

Passes for default location (London). Set your location on the main map for personalized predictions.

高度历史

Loading altitude history...

两行轨道根数

1 60149U 24120Q 26171.36118124 -.00001370 00000-0 -29431-4 0 9998
2 60149 53.1593 202.4589 0000938 84.4660 275.6449 15.34384573112189
Epoch: Jun 20, 2026 • Age: 20 hours

当前状态

高度 462.8 km
速度 7.64 km/s
星下点 9.17°N, 139.62°W
发射日期 Jun 27, 2024
运行时间 1.9 years
类型 internet

技术详情

分类 Payload
质量 730.00 kg
干质量 700.00 kg
总质量 730.00 kg
长度 0.30 m
直径 4.10 m
跨度 29.00 m
形状 Box + pan
制造商 SPXS
平台类型 Starlink V2M
阶段状态 In Orbit
所有者/国家 SPXS/US

Most Searched